Weather History for Les Eplatures, Switzerland

Change the Weather History Date:

Tuesday, March 11, 2014

  Actual Average Record
Temperature  
Mean Temperature 42 °F -  
Max Temperature 53 °F - - ()
Min Temperature 30 °F - - ()
Degree Days  
Heating Degree Days 24    
Moisture  
Dew Point 25 °F    
Average Humidity 54    
Maximum Humidity 87    
Minimum Humidity 24    
Precipitation  
Precipitation 0.00 in - - ()
Sea Level Pressure  
Sea Level Pressure 30.19 in    
Wind  
Wind Speed 6 mph ()    
Max Wind Speed 17 mph    
Max Gust Speed 22 mph    
Visibility 4.8 miles    
Events      
T = Trace of Precipitation, MM = Missing Value Source: Averaged Metar Reports

Daily Weather History Graph

Daily Weather History Graph

Search for Another Location

Airport:

Trip Planner

Search our weather history database for the weather conditions in past years. The results will help you decide how hot, cold, wet, or windy it might be!

Date:

Astronomy

Mar. 11, 2014 Rise Set
Actual Time 6:54 AM CET 6:32 PM CET
Civil Twilight 6:23 AM CET 7:02 PM CET
Nautical Twilight 5:48 AM CET 7:38 PM CET
Astronomical Twilight 5:12 AM CET 8:14 PM CET
Moon 1:40 PM CET (3/11) 3:51 AM CET (3/11)
Length of Visible Light 12h 39m
Length of Day
11h 38m
Waxing Gibbous, 76% of the Moon is Illuminated
Mar 11
Waxing Gibbous
Mar 16
Full
Mar 24
Last Quarter
Mar 30
New
Apr 7
First Quarter

Hourly Weather History & Observations

Time (CET) Temp. Windchill Dew Point Humidity Pressure Visibility Wind Dir Wind Speed Gust Speed Precip Events Conditions
12:20 AM 37.4 °F - 32.0 °F 81% 30.15 in 5.0 mi Variable 2.3 mph - N/A   Unknown
12:50 AM 37.4 °F - 30.2 °F 75% 30.15 in 5.6 mi Variable 1.2 mph - N/A   Unknown
1:20 AM 33.8 °F - 30.2 °F 87% 30.15 in 4.3 mi Variable 2.3 mph - N/A   Unknown
1:50 AM 37.4 °F - 32.0 °F 81% 30.15 in 5.0 mi Variable 1.2 mph - N/A   Unknown
2:20 AM 33.8 °F - 28.4 °F 81% 30.15 in 5.0 mi Variable 2.3 mph - N/A   Unknown
2:50 AM 33.8 °F - 30.2 °F 87% 30.15 in 4.3 mi Variable 2.3 mph - N/A   Unknown
3:20 AM 30.2 °F - 26.6 °F 86% 30.15 in 4.3 mi Variable 2.3 mph - N/A   Unknown
3:50 AM 35.6 °F 30.7 °F 26.6 °F 70% 30.12 in - NNE 5.8 mph - N/A   Clear
4:20 AM 33.8 °F 29.6 °F 28.4 °F 81% 30.15 in - NE 4.6 mph - N/A   Clear
4:50 AM 33.8 °F 27.7 °F 28.4 °F 81% 30.15 in - NE 6.9 mph - N/A   Clear
5:20 AM 33.8 °F 29.6 °F 28.4 °F 81% 30.15 in - NE 4.6 mph - N/A   Clear
5:50 AM 33.8 °F 29.6 °F 28.4 °F 81% 30.15 in - NE 4.6 mph - N/A   Clear
6:20 AM 33.8 °F 30.8 °F 26.6 °F 75% 30.15 in - NE 3.5 mph - N/A   Clear
6:50 AM 33.8 °F - 28.4 °F 81% 30.15 in - NE 2.3 mph - N/A   Clear
7:20 AM 33.8 °F 30.8 °F 26.6 °F 75% 30.18 in - NE 3.5 mph - N/A   Clear
7:50 AM 33.8 °F 30.8 °F 28.4 °F 81% 30.18 in - NE 3.5 mph - N/A   Clear
8:20 AM 35.6 °F - 28.4 °F 75% 30.18 in - Variable 2.3 mph - N/A   Clear
8:50 AM 39.2 °F 35.9 °F 30.2 °F 70% 30.18 in - NE 4.6 mph - N/A   Clear
9:20 AM 42.8 °F 36.2 °F 30.2 °F 61% 30.18 in - NE 12.7 mph - N/A   Clear
9:50 AM 46.4 °F 40.4 °F 28.4 °F 50% 30.18 in - NE 13.8 mph - N/A   Clear
10:20 AM 48.2 °F - 28.4 °F 46% 30.18 in - NE 11.5 mph - N/A   Clear
10:50 AM 48.2 °F - 24.8 °F 40% 30.15 in - NE 16.1 mph - N/A   Clear
11:20 AM 50.0 °F - 24.8 °F 37% 30.15 in - NE 17.3 mph - N/A   Clear
11:50 AM 51.8 °F - 24.8 °F 35% 30.18 in - NE 17.3 mph - N/A   Clear
12:20 PM 53.6 °F - 23.0 °F 30% 30.18 in - ENE 12.7 mph - N/A   Clear
12:50 PM 53.6 °F - 23.0 °F 30% 30.18 in - East 13.8 mph - N/A   Clear
1:20 PM 53.6 °F - 19.4 °F 26% 30.18 in - ENE 17.3 mph - N/A   Clear
1:50 PM 51.8 °F - 21.2 °F 30% 30.18 in - ENE 11.5 mph - N/A   Clear
2:20 PM 53.6 °F - 21.2 °F 28% 30.18 in - East 9.2 mph - N/A   Clear
2:50 PM 51.8 °F - 21.2 °F 30% 30.18 in - ENE 12.7 mph - N/A   Clear
3:20 PM 53.6 °F - 19.4 °F 26% 30.18 in - ENE 13.8 mph - N/A   Clear
3:50 PM 51.8 °F - 15.8 °F 24% 30.18 in - ENE 13.8 mph - N/A   Clear
4:20 PM 51.8 °F - 15.8 °F 24% 30.21 in - ENE 16.1 mph - N/A   Clear
4:50 PM 50.0 °F - 19.4 °F 30% 30.21 in - ENE 10.4 mph - N/A   Clear
5:20 PM 48.2 °F - 21.2 °F 34% 30.21 in - NE 9.2 mph - N/A   Clear
5:50 PM 48.2 °F - 19.4 °F 32% 30.21 in - ENE 9.2 mph - N/A   Clear
6:20 PM 46.4 °F 42.4 °F 21.2 °F 37% 30.24 in - ENE 8.1 mph - N/A   Clear
6:50 PM 44.6 °F 40.2 °F 23.0 °F 43% 30.24 in - NE 8.1 mph - N/A   Clear
7:20 PM 44.6 °F 40.7 °F 21.2 °F 39% 30.24 in - ENE 6.9 mph - N/A   Clear
7:50 PM 42.8 °F 37.5 °F 23.0 °F 46% 30.27 in - ENE 9.2 mph - N/A   Clear
8:20 PM 42.8 °F 36.6 °F 26.6 °F 53% 30.24 in - ENE 11.5 mph - N/A   Clear
8:50 PM 42.8 °F 36.6 °F 24.8 °F 49% 30.27 in - ENE 11.5 mph - N/A   Clear
9:20 PM 44.6 °F 40.2 °F 24.8 °F 46% 30.27 in - ENE 8.1 mph 21.9 mph N/A   Clear
9:50 PM 42.8 °F 35.4 °F 24.8 °F 49% 30.27 in - ENE 15.0 mph - N/A   Clear
10:20 PM 41.0 °F 38.0 °F 24.8 °F 53% 30.27 in - NE 4.6 mph - N/A   Clear
10:50 PM 41.0 °F 37.1 °F 24.8 °F 53% 30.27 in - NE 5.8 mph - N/A   Clear
11:20 PM 41.0 °F 38.0 °F 24.8 °F 53% 30.27 in - ENE 4.6 mph - N/A   Clear
11:50 PM 41.0 °F 37.1 °F 23.0 °F 49% 30.27 in - East 5.8 mph - N/A   Clear